[TLELIST] Archives

 

[list_settings.list_name] Current TLEs

March 19th 2011 PST

HST 1 20580U 90037B 11076.91108988 .00001149 00000-0 74652-4 0 7286 2 20580 028.4716 252.6315 0003193 231.0938 128.9289 15.01215202945928 ISS (ZARYA) 1 25544U 98067A 11077.33853009 .00025311 00000-0 18509-3 0 233 2 25544 051.6450 266.9294 0007042 071.5938 302.4372 15.73025887706603 CXO 1 25867U 99040B 11079.04166667 .00000118 00000-0 00000+0 0 5810 2 25867 068.7595 037.5403 8526298 276.2204 354.7562 00.37806946 7434 ____________________________________________________________________ These 2-Line ...Continue Reading

[list_settings.list_name] Current TLEs

March 18th 2011 PST

HST 1 20580U 90037B 11076.11330575 .00001442 00000-0 96912-4 0 7275 2 20580 028.4716 257.8493 0003299 222.1407 137.8767 15.01216185945809 ISS (ZARYA) 1 25544U 98067A 11076.51741507 .00028383 00000-0 20726-3 0 192 2 25544 051.6472 271.1348 0006178 074.2169 326.8483 15.72994895706471 CXO 1 25867U 99040B 11076.41666667 .00000202 00000-0 00000+0 0 5806 2 25867 068.7308 037.6996 8523915 276.2289 357.3012 00.37809300 7425 ____________________________________________________________________ These 2-Line ...Continue Reading

[list_settings.list_name] Current TLEs

March 16th 2011 PST

PUBLIC "-//W3C//DTD XHTML 1.0 Transitional//EN" "http://www.w3.org/TR/xhtml1/DTD/xhtml1-transitional.dtd"> ____________________________________________________________________ These 2-Line Elements (TLEs) are direct from DoD/ USSTRATCOM/ US Space Command with permission. Updates are provided automatically daily. By receiving this email, you agree not to transfer any data or information received under this agreement, including the analysis of tracking data, to any other entity without the ...Continue Reading

[list_settings.list_name] Current TLEs

March 15th 2011 PST

HST 1 20580U 90037B 11071.99143118 .00002095 00000-0 14665-3 0 7258 2 20580 028.4717 284.7689 0003736 180.8291 179.2733 15.01207948945184 ISS (ZARYA) 1 25544U 98067A 11074.17743215 .00027048 00000-0 19891-3 0 64 2 25544 051.6468 283.1340 0006103 066.9760 034.9268 15.72858649706108 CXO 1 25867U 99040B 11073.75000000 .00000071 00000-0 00000+0 0 5795 2 25867 068.7053 037.9576 8520484 276.1890 354.2139 00.37806594 7411 ____________________________________________________________________ These 2-Line ...Continue Reading

[list_settings.list_name] Current TLEs

March 14th 2011 PST

HST 1 20580U 90037B 11071.99143118 .00002095 00000-0 14665-3 0 7258 2 20580 028.4717 284.7689 0003736 180.8291 179.2733 15.01207948945184 ISS (ZARYA) 1 25544U 98067A 11073.47550834 .00032559 00000-0 23863-3 0 22 2 25544 051.6464 286.7286 0006015 065.4004 019.4029 15.72832405705990 CXO 1 25867U 99040B 11073.75000000 .00000071 00000-0 00000+0 0 5795 2 25867 068.7053 037.9576 8520484 276.1890 354.2139 00.37806594 7411 ____________________________________________________________________ These 2-Line ...Continue Reading

[list_settings.list_name] Current TLEs

March 14th 2011 PST

HST 1 20580U 90037B 11071.99143118 .00002095 00000-0 14665-3 0 7258 2 20580 028.4717 284.7689 0003736 180.8291 179.2733 15.01207948945184 ISS (ZARYA) 1 25544U 98067A 11072.31292824 .00031920 00000-0 23482-3 0 9944 2 25544 051.6469 292.6876 0006131 064.9685 272.8132 15.72755186705804 CXO 1 25867U 99040B 11073.75000000 .00000071 00000-0 00000+0 0 5795 2 25867 068.7053 037.9576 8520484 276.1890 354.2139 00.37806594 7411 ____________________________________________________________________ These 2-Line ...Continue Reading

[list_settings.list_name] Current TLEs

March 13th 2011 PST

HST 1 20580U 90037B 11069.06620450 .00001212 00000-0 79507-4 0 7248 2 20580 028.4715 303.8711 0003545 147.4930 212.6124 15.01196317944742 ISS (ZARYA) 1 25544U 98067A 11071.42767361 .00032637 00000-0 24057-3 0 9875 2 25544 051.6462 297.2265 0005925 061.2057 301.0427 15.72697091705670 CXO 1 25867U 99040B 11071.12500000 -.00000053 00000-0 00000+0 0 5789 2 25867 068.6960 038.1308 8515817 276.1963 356.7588 00.37800697 7400 ____________________________________________________________________ These 2-Line ...Continue Reading

[list_settings.list_name] Current TLEs

March 12th 2011 PST

HST 1 20580U 90037B 11069.06620450 .00001212 00000-0 79507-4 0 7248 2 20580 028.4715 303.8711 0003545 147.4930 212.6124 15.01196317944742 ISS (ZARYA) 1 25544U 98067A 11070.41159722 .00051452 00000-0 37659-3 0 9800 2 25544 051.6462 302.4363 0005801 057.6079 308.1780 15.72649718705510 CXO 1 25867U 99040B 11071.12500000 -.00000053 00000-0 00000+0 0 5789 2 25867 068.6960 038.1308 8515817 276.1963 356.7588 00.37800697 7400 ____________________________________________________________________ These 2-Line ...Continue Reading

[list_settings.list_name] Current TLEs

March 11th 2011 PST

HST 1 20580U 90037B 11069.06620450 .00001212 00000-0 79507-4 0 7248 2 20580 028.4715 303.8711 0003545 147.4930 212.6124 15.01196317944742 ISS (ZARYA) 1 25544U 98067A 11069.21994410 .00025398 00000-0 18954-3 0 9769 2 25544 051.6461 308.5394 0005995 049.3799 045.5147 15.72551366705320 CXO 1 25867U 99040B 11060.54166667 -.00000294 00000-0 00000+0 0 5776 2 25867 068.6277 038.7682 8512399 276.1596 355.9770 00.37805617 7362 ____________________________________________________________________ These 2-Line ...Continue Reading

[list_settings.list_name] Current TLEs

March 10th 2011 PST

HST 1 20580U 90037B 11066.14095758 .00000957 00000-0 60066-4 0 7235 2 20580 028.4714 322.9721 0003563 118.2685 241.8325 15.01188991944305 ISS (ZARYA) 1 25544U 98067A 11068.37347222 .00025997 00000-0 19424-3 0 9711 2 25544 051.6462 312.8779 0005806 047.7658 291.9396 15.72508825705182 CXO 1 25867U 99040B 11060.54166667 -.00000294 00000-0 00000+0 0 5776 2 25867 068.6277 038.7682 8512399 276.1596 355.9770 00.37805617 7362 ____________________________________________________________________ These 2-Line ...Continue Reading
  • This mailing list is a public mailing list - anyone may join or leave, at any time.
  • This mailing list is announce-only.

International Space Station (ISS) / Hubble Space Telescope (HST) / Chandra X-Ray Observatory Orbital Data via EMAIL

Privacy Policy:

Private list